GAOFEN-12 04

Last updated on Mon Jun 22 2026 00:02:52 GMT+0000 (Coordinated Universal Time)

1 57654U 23123A 26172.53122707 .00000669 00000+0 94709-4 0 9996 2 57654 97.9119 90.4867 0001784 81.4546 278.6868 14.80235393153278
UTC large
Height (km)
Speed (km/s)
/
Latitude / Longitude
Inclination (degrees)
Orbital Period (minutes)
Azimuth
Elevation
Range (km)
Doppler Factor

Next 0 passes for location: London (51.5072 / 0.1276)

No passes found over London.
GAOFEN-12 04